Location: Villacidro
(39.4500°N, 8.7330°E)
Time: 22:47:48
(UTC+01:00)

ISS - Visible Passes

Search period start: 18 January 2019 00:00
Search period end: 28 January 2019 00:00
Orbit: 404 x 410 km, 51.6° (Epoch: 18 January)

Date Brightness Start Highest point End Pass type
(mag) Time Alt. Az. Time Alt. Az. Time Alt. Az.
20 Jan -1.7 19:33:32 10° SSW 19:34:50 21° SSW 19:34:50 21° SSW visible
21 Jan -2.4 18:42:47 10° S 18:45:27 23° SE 18:46:01 22° ESE visible
21 Jan -0.2 20:18:45 10° W 20:18:46 10° W 20:18:46 10° W visible
22 Jan -3.1 19:27:08 10° WSW 19:29:52 54° W 19:29:52 54° W visible
23 Jan -3.7 18:35:47 10° SW 18:39:02 63° SE 18:40:53 23° ENE visible
23 Jan -0.4 20:13:16 10° WNW 20:13:36 12° WNW 20:13:36 12° WNW visible
24 Jan -2.4 19:21:17 10° W 19:24:15 30° NNW 19:24:32 29° NNW visible
25 Jan -3.1 18:29:32 10° WSW 18:32:44 50° NW 18:35:23 14° NE visible
26 Jan -1.6 19:15:52 10° WNW 19:18:11 18° NNW 19:18:52 17° N visible
27 Jan -2.0 18:23:46 10° W 18:26:33 25° NNW 18:29:21 10° NNE visible
